Terminal Aerodrome Forecast
Issued by NWS Charleston, WV

Current Version | Previous Version | Graphics & Text | Print | Product List | Glossary On
Versions: 1 2 3 4 5 6 7 8 9 10 11 12 13 14 15 16 17 18 19 20 21 22 23
000
FTUS41 KRLX 010700 AAA
TAFBKW
TAF AMD
KBKW 010731Z 0108/0206 32006KT 5SM -RA BR BKN008 OVC013
     FM011500 34005KT P6SM BKN018
     FM012100 34008KT P6SM BKN040
     FM020300 VRB03KT P6SM SCT045=

USA.gov is the U.S. government's official web portal to all federal, state and local government web resources and services.